Location: Mentone
(34.5413°N, 85.5351°W)
Time: 15:01:31
(UTC-06:00)

S-56A Canister/Altair - Visible Passes

Search period start: 11 December 2017 00:00
Search period end: 21 December 2017 00:00
Orbit: 634 x 2499 km, 38.9° (Epoch: 10 December)

Date Brightness Start Highest point End Pass type
(mag) Time Alt. Az. Time Alt. Az. Time Alt. Az.
11 Dec 11.2 01:02:52 22° E 01:02:52 22° E 01:07:00 10° E visible
11 Dec 9.7 03:00:19 80° SSE 03:00:19 80° SSE 03:14:51 10° ESE visible
11 Dec 10.4 04:57:46 25° W 05:05:48 43° SW 05:19:12 10° SSE visible
12 Dec 11.6 00:32:18 12° E 00:32:18 12° E 00:33:14 10° E visible
12 Dec 10.0 02:29:45 60° ESE 02:29:45 60° ESE 02:41:24 10° ESE visible
12 Dec 10.2 04:27:12 36° W 04:32:31 47° SW 04:46:25 10° SSE visible
12 Dec 10.2 19:31:15 10° SSW 19:31:40 12° SSW 19:31:40 12° SSW visible
13 Dec 10.5 01:59:13 42° ESE 01:59:13 42° ESE 02:07:51 10° ESE visible
13 Dec 10.0 03:56:39 48° WSW 03:59:12 51° SW 04:13:30 10° SSE visible
13 Dec 11.1 05:55:53 10° W 06:04:26 18° SW 06:13:05 10° SSW visible
13 Dec 9.7 18:59:36 10° S 19:01:10 16° S 19:01:10 16° S visible
14 Dec 11.0 01:28:41 28° ESE 01:28:41 28° ESE 01:34:14 10° ESE visible
14 Dec 9.9 03:26:09 56° SSW 03:26:09 56° SSW 03:40:27 10° SE visible
14 Dec 11.0 05:23:37 13° W 05:31:20 21° SW 05:41:14 10° S visible
14 Dec 9.5 18:28:10 10° S 18:30:40 17° SE 18:30:40 17° SE visible
15 Dec 11.4 00:58:12 17° ESE 00:58:12 17° ESE 01:00:32 10° ESE visible
15 Dec 10.1 02:55:39 52° S 02:55:39 52° S 03:07:16 10° SE visible
15 Dec 10.8 04:53:07 20° WSW 04:58:13 25° SW 05:09:04 10° S visible
15 Dec 9.7 17:57:11 10° SSE 17:59:29 13° SE 18:00:07 12° ESE visible
15 Dec 10.0 19:56:24 10° SW 19:57:34 18° SW 19:57:34 18° SW visible
16 Dec 10.5 02:25:11 41° SSE 02:25:11 41° SSE 02:33:59 10° SE visible
16 Dec 10.6 04:22:38 26° WSW 04:25:03 28° SW 04:36:39 10° S visible
16 Dec 9.1 19:24:19 10° SW 19:27:01 31° SSW 19:27:01 31° SSW visible
17 Dec 10.9 01:54:42 29° SE 01:54:42 29° SE 02:00:35 10° SE visible
17 Dec 10.5 03:52:09 31° SW 03:52:09 31° SW 04:04:03 10° SSE visible
17 Dec 8.4 18:52:18 10° SW 18:56:25 43° SSE 18:56:25 43° SSE visible
18 Dec 11.3 01:24:12 18° SE 01:24:12 18° SE 01:27:06 10° SE visible
18 Dec 10.6 03:21:40 32° SSW 03:21:40 32° SSW 03:31:17 10° SSE visible
18 Dec 8.4 18:20:21 10° SSW 18:24:53 37° SE 18:25:50 35° ESE visible
18 Dec 10.5 20:22:48 10° W 20:23:17 13° W 20:23:17 13° W visible
19 Dec 10.8 02:51:10 28° S 02:51:10 28° S 02:58:22 10° SSE visible
19 Dec 8.6 17:48:27 10° SSW 17:52:36 30° SE 17:55:11 21° E visible
19 Dec 9.6 19:50:35 10° WSW 19:52:38 26° WSW 19:52:38 26° WSW visible
20 Dec 11.1 02:20:38 22° SSE 02:20:38 22° SSE 02:25:20 10° SSE visible
20 Dec 11.2 04:18:06 12° SW 04:18:06 12° SW 04:22:38 10° SSW visible
20 Dec 8.9 17:16:39 10° SSW 17:20:19 23° SE 17:24:32 11° E visible
20 Dec 8.4 19:18:22 10° WSW 19:21:58 51° WSW 19:21:58 51° WSW visible
